Location: Unspecified
(0.0000°N, 0.0000°E)
Time: 00:04:51
(UTC+00:00)

STARLINK-32315 - Pass Details

Date: 23 April 2025
Orbit: 474 x 476 km, 53.2° (Epoch: 16 May)

Event Time Altitude Azimuth Distance (km) Brightness Sun altitude
Rises 18:31:39 0° 333° (NNW) 2,505 7.6 -8.1°
Reaches altitude 10° 18:33:49 10° 337° (NNW) 1,631 6.6 -8.7°
Maximum altitude 18:37:26 57° 56° (ENE) 559 3.4 -9.6°
Enters shadow 18:40:59 11° 135° (SE) 1,605 5.5 -10.4°
